Lid_Strength_Index
5 5 4 4 4 3 3 3 3 4 4 4 4 3 3 4 7 11 13 9 7 4 5 9 9 10 10 12 11 11 14 15 17 15 16 15 14 15 15 17 16 16 16 16 15
5 4 4 3 3 4 3 3 3 4 4 5 4 4 3 3 12 15 9 6 5 5 10 11 11 10 12 12 13 15 17 17 15 16 17 17 16 17 18 17 17 16 15 14 15
5 5 4 3 2 3 4 4 4 4 5 5 5 5 4 4 13 15 8 6 6 7 10 11 11 10 12 13 14 14 16 15 16 15 16 17 17 16 17 18 16 17 16 15 15
5 5 5 4 4 4 4 4 5 4 5 6 5 5 3 7 17 14 7 6 6 8 11 11 12 13 13 14 13 16 15 15 14 16 16 16 15 17 17 17 15 16 16 16 16
6 5 5 4 5 4 4 4 5 4 4 4 4 3 8 14 16 11 7 8 9 10 11 11 12 13 14 13 13 17 17 15 15 15 16 15 17 17 17 16 15 15 15 17 17
5 5 4 4 4 4 3 3 3 3 3 3 3 6 12 16 12 12 11 10 11 11 12 12 12 11 13 14 15 15 16 17 17 17 17 17 18 17 17 15 16 16 17 16 16
5 5 4 4 4 4 4 4 4 5 5 6 6 11 15 16 13 12 12 11 11 11 12 12 12 11 12 14 14 15 17 16 18 17 18 16 18 18 16 14 15 15 16 15 15
5 5 5 4 4 4 4 5 5 5 6 6 6 13 17 12 13 12 12 12 11 11 12 12 12 13 13 13 14 16 16 18 18 17 17 17 20 16 15 16 16 16 17 16 15
5 5 5 4 4 4 4 4 4 5 5 5 12 15 18 11 14 13 13 13 13 12 12 11 13 16 16 18 20 19 21 20 20 18 18 19 20 16 15 16 17 17 17 16 16
5 5 6 5 5 4 4 4 6 9 10 10 12 15 15 16 14 13 13 13 14 14 14 14 18 20 21 20 23 22 22 20 21 20 19 19 19 17 16 17 18 17 17 17 16
5 5 6 5 5 4 7 10 12 14 15 17 17 17 16 14 13 14 13 14 14 16 19 18 20 22 23 22 21 20 21 22 22 19 20 19 19 17 16 18 18 18 18 18 16
5 5 6 5 5 4 9 13 14 14 18 15 15 15 14 14 16 15 13 16 16 20 19 20 23 21 19 19 20 20 21 23 21 19 20 21 20 18 17 16 17 17 18 17 17
5 6 6 5 5 10 12 13 10 12 17 17 15 16 16 15 18 17 15 17 19 20 21 21 21 18 18 20 20 22 22 23 22 20 20 22 21 19 17 16 15 15 16 17 17
5 6 6 4 8 11 14 10 9 10 21 17 17 16 14 15 18 14 15 16 18 21 21 21 19 19 20 20 20 20 20 20 20 21 22 21 24 21 19 17 16 15 17 17 16
5 6 6 6 11 12 11 9 10 13 26 17 17 13 14 16 17 16 15 16 19 20 20 21 21 20 20 20 19 20 19 19 19 21 22 22 23 22 18 19 16 16 17 17 16
6 6 7 10 12 11 10 9 12 20 27 22 17 18 18 17 17 16 16 15 16 18 19 20 18 20 20 18 18 18 19 19 20 21 27 23 23 22 20 17 17 16 16 17 16
6 7 9 10 13 10 10 13 21 25 20 22 21 18 19 19 19 18 18 19 21 24 22 20 20 20 17 20 19 19 19 24 25 28 25 22 23 21 18 17 16 15 16 17 16
7 8 9 10 11 11 12 17 27 25 25 18 19 18 19 19 19 19 19 22 20 20 23 22 23 20 18 19 21 19 20 24 29 25 22 21 23 20 18 16 16 15 16 17 17
7 13 14 13 11 11 16 26 24 22 18 19 19 21 25 19 20 20 20 22 21 20 21 24 21 19 17 18 19 21 23 20 27 27 27 22 21 18 16 18 17 17 17 17 17
13 15 15 12 12 14 19 21 21 18 18 19 21 20 29 27 22 21 20 21 19 17 20 19 24 19 18 18 19 20 19 23 25 30 31 23 24 22 18 17 17 17 17 17 16
14 15 14 13 13 17 24 26 22 17 17 19 20 24 20 23 23 26 21 18 20 18 17 24 21 21 19 22 21 22 23 23 22 24 27 28 24 22 18 16 16 16 16 16 16
15 20 13 12 19 23 25 23 16 18 18 18 18 18 20 21 24 24 22 19 18 19 19 19 23 26 23 21 20 22 23 22 25 26 26 25 25 17 18 16 15 16 15 16 15
18 19 14 13 24 28 25 21 18 19 18 19 19 18 18 19 24 19 18 17 17 18 22 21 24 29 23 22 21 25 20 19 22 23 26 28 24 17 17 18 16 16 16 15 16
18 22 20 19 19 20 26 23 22 17 18 17 19 18 19 20 18 24 19 17 16 16 13 16 28 25 24 23 25 27 26 20 25 29 25 23 22 19 19 18 18 18 17 17 16
19 22 23 25 24 25 22 20 19 20 20 17 19 21 23 26 24 23 20 19 17 15 16 21 28 29 26 22 23 25 27 23 24 22 24 19 20 20 19 18 18 17 17 17 16
20 22 25 28 23 24 23 22 19 18 21 22 24 19 20 24 21 23 22 20 21 20 22 24 28 29 28 21 21 24 23 24 21 20 20 19 20 17 19 20 18 17 16 16 16
19 18 18 22 26 24 22 19 17 18 18 17 19 19 19 18 19 20 18 17 18 21 21 24 28 30 30 22 23 26 24 22 21 26 20 22 18 18 19 17 17 16 16 16 15